SCP
0 0 0 0 0 0 0 0 0 0 0 0 0 0 0 0 0 0 0 -0 0 0 0 0 0 0 0 0 0 0 0 0 0 0 0 0 0 0
0 0 0 0 0 0 0 0 0 0 0 0 0 0 0 0 0 0 0 -0 -0 -0 0 0 0 0 0 0 0 0 0 0 0 0 0 0 0 0
0 0 0 0 0 0 0 0 0 0 0 0 0 0 0 0 0 0 0 -0 -0 -0 0 0 0 0 0 0 0 0 0 0 0 0 0 0 0 0
0 0 0 0 0 0 0 0 0 0 0 0 0 0 0 0 0 0 0 0 0 0 0 0 0 0 0 0 0 0 0 0 0 0 0 0 0 0
0 0 0 0 0 0 0 0 0 0 0 0 0 0 0 0 0 0 0 0 0 0 0 0 0 0 0 0 0 0 0 0 0 0 0 0 0 0
0 0 0 0 0 0 0 0 0 0 0 0 0 0 0 0 0 0 0 0 0 0 -0 0 0 0 0 0 0 0 0 0 0 0 0 0 0 0
0 0 0 0 0 0 0 0 0 0 0 0 0 0 0 0 0 0 0 0 0 0 0 0 0 0 0 0 0 0 0 0 0 0 0 0 0 0
0 0 0 0 0 0 0 0 0 0 0 0 0 0 0 0 0 0 0 0 0 0 0 0 0 0 0 0 0 0 0 0 0 0 0 0 0 0
0 -0 0 0 0 0 0 0 0 0 0 0 0 0 0 0 0 0 0 0 0 0 0 0 0 0 0 0 0 0 0 0 0 0 0 0 0 0
0 0 -0 0 0 0 0 0 0 0 0 0 0 0 0 0 -0 0 0 0 0 0 0 0 0 0 0 0 0 0 0 0 0 0 0 0 0 0
0 0 0 -0 0 0 0 0 0 0 0 0 -0 -0 -0 0 0 0 0 0 0 0 0 0 0 0 0 0 0 0 0 0 0 0 0 0 0 0
-0 -0 0 0 0 0 -0 -0 0 -0 0 0 -0 -0 0 0 0 0 0 0 0 0 0 0 0 0 0 0 0 0 0 0 0 0 0 0 0 0
-0 0 -0 -0 -0 0 0 0 0 0 -0 0 0 0 0 0 0 0 0 0 0 0 0 0 0 0 0 0 0 0 0 0 0 0 0 0 0 0
-0 -0 -0 0 0 0 0 0 0 -0 0 0 0 0 0 0 0 0 0 0 0 0 0 0 0 0 0 0 0 0 0 0 0 0 0 0 0 0
-0 0 0 0 -0 -0 -0 -0 0 0 0 0 0 0 0 0 0 0 0 0 0 0 0 0 0 0 0 0 0 0 0 0 0 0 0 0 0 0
0 0 0 0 -0 0 0 0 0 0 0 0 0 0 0 0 0 0 0 0 0 0 0 0 0 0 0 0 0 0 0 0 0 0 0 0 0 0
-0 0 0 0 0 0 0 0 0 0 0 0 0 0 0 0 0 0 0 0 0 0 0 0 0 0 0 0 0 0 0 0 0 0 0 0 0 0
0 0 0 0 0 0 0 0 0 0 0 0 0 0 0 0 0 0 0 0 0 0 0 0 0 0 0 0 0 0 0 0 0 0 0 0 0 0
0 0 0 0 0 0 0 0 0 0 0 0 0 0 0 0 0 0 0 0 0 0 0 0 0 -0 0 0 0 0 0 0 0 0 0 0 0 0
0 0 0 0 0 0 0 0 0 0 0 0 0 0 0 0 0 0 0 0 0 0 0 0 0 0 0 0 0 0 0 0 0 0 0 0 0 0
0 0 0 0 0 0 0 0 0 0 0 0 0 0 0 0 0 0 0 0 0 0 0 0 0 0 0 0 0 0 0 0 0 0 0 0 0 0
0 0 0 0 0 0 0 0 0 0 0 0 0 0 0 0 0 0 0 0 0 0 0 0 0 0 0 0 0 0 0 0 0 0 0 0 0 0
0 0 0 0 0 0 0 0 0 0 0 0 0 0 0 0 0 0 0 0 0 0 0 0 0 0 0 0 0 0 0 0 0 0 0 0 0 0
Wind_Speed_500mb
35 36 51 55 48 50 68 61 64 45 46 59 60 57 63 54 49 36 23 19 18 18 15 18 17 18 15 12 15 17 18 22 24 28 31 32 34 37
38 44 52 48 58 58 60 65 62 68 41 53 58 54 53 57 50 32 17 13 15 12 15 17 17 15 12 15 18 20 24 25 29 32 36 38 40 43
32 37 44 39 44 55 62 61 51 59 58 52 49 46 45 46 50 32 24 14 16 16 16 15 10 12 16 18 21 25 28 31 35 38 45 45 48 51
34 34 42 45 51 57 54 53 40 36 53 51 42 44 40 39 33 27 17 16 14 13 10 8 12 15 18 22 27 31 36 41 45 48 51 52 56 59
30 34 42 49 52 54 51 48 54 47 48 44 39 37 35 35 31 26 22 18 17 14 8 10 12 19 23 29 32 35 38 40 42 42 45 47 50 53
27 37 46 48 50 55 55 52 43 48 42 34 34 28 27 27 22 21 23 16 11 9 7 11 16 22 25 28 32 36 35 35 40 42 42 46 50 53
27 36 50 63 48 54 57 51 50 45 40 36 27 23 25 26 20 13 13 10 10 12 11 15 21 23 31 34 33 35 38 38 44 47 50 55 58 63
40 45 48 53 52 44 57 44 37 36 32 26 25 24 23 19 14 7 6 7 13 10 17 21 30 30 36 31 36 45 47 47 51 57 59 57 66 71
43 55 51 53 53 52 44 33 28 27 17 22 25 26 22 18 13 8 2 5 13 23 31 35 39 42 42 46 46 45 46 45 45 51 60 68 68 71
47 50 60 57 54 42 32 25 23 25 23 13 7 8 5 6 4 8 13 18 21 27 32 36 37 37 37 38 29 30 32 35 37 40 44 48 51 52
47 47 50 45 35 29 27 25 23 22 17 8 12 10 4 3 4 12 15 16 19 25 26 20 27 35 26 21 27 34 37 38 41 43 47 51 55 59
41 41 38 36 36 37 33 29 28 28 23 16 20 18 10 11 16 16 13 10 11 13 14 26 19 24 20 17 36 38 45 51 50 50 50 50 55 67
37 42 37 34 31 29 30 35 26 29 26 18 19 20 19 18 14 13 13 10 11 10 13 16 18 27 27 34 41 39 51 56 60 61 57 55 53 56
28 33 33 34 32 33 35 37 32 29 28 27 27 27 22 15 12 7 4 6 6 6 11 20 15 20 29 34 43 54 57 56 59 58 71 71 72 72
23 27 35 36 36 34 32 31 30 30 29 26 23 20 15 10 6 4 5 6 10 9 8 7 18 23 29 36 44 51 61 63 57 74 73 73 78 76
31 34 33 35 37 34 34 33 30 29 26 25 23 19 15 13 9 10 11 9 9 7 4 14 19 28 34 37 42 50 53 59 70 70 73 70 63 54
35 41 42 44 46 43 40 36 31 29 31 30 26 23 20 17 16 13 13 12 9 3 8 14 21 28 33 37 45 51 60 64 65 65 64 64 55 49
45 50 50 49 49 48 45 40 38 38 39 35 32 28 20 20 20 21 19 10 4 6 11 18 26 33 41 47 52 60 61 61 58 59 58 65 69 57
53 54 53 50 49 49 46 45 43 41 35 34 35 29 23 19 23 21 15 11 7 5 11 21 30 39 48 55 51 53 55 54 62 67 65 63 65 55
62 61 59 54 52 53 52 52 51 49 45 43 40 30 26 29 28 23 15 10 7 7 13 20 29 40 46 45 47 47 40 47 57 64 68 67 60 58
70 70 64 59 57 54 52 54 57 59 56 51 43 36 37 29 24 17 15 10 8 8 13 20 30 37 37 40 49 56 52 45 44 49 56 66 71 71
70 74 73 73 66 60 61 62 62 64 63 56 46 46 37 30 22 24 17 8 5 8 13 20 27 32 37 45 48 53 60 60 55 42 35 40 48 53
67 71 76 77 75 72 69 62 65 70 67 57 53 47 45 35 33 28 17 7 3 6 12 18 25 30 36 41 47 54 60 64 67 68 57 48 42 40
Wind_Direction_500mb
183 183 176 167 178 182 179 184 169 153 154 171 172 185 185 182 172 169 165 173 195 215 217 221 216 218 235 269 284 286 292 296 302 301 301 307 309 307
187 182 187 183 176 179 175 171 172 163 153 174 182 186 166 176 181 182 191 214 213 220 221 222 221 234 261 287 296 304 300 297 299 301 301 304 306 304
179 179 186 190 181 176 171 171 173 169 162 172 174 175 172 175 183 192 218 223 222 218 225 224 234 266 290 297 300 297 302 304 304 304 303 306 307 304
169 169 172 178 173 174 176 170 162 173 165 159 164 169 172 178 186 213 225 215 208 209 223 249 274 287 291 297 304 307 307 305 306 308 310 311 308 305
164 170 168 170 178 177 173 155 143 142 146 147 152 152 162 181 190 199 197 208 209 208 234 248 267 285 297 307 313 315 316 318 318 315 311 311 307 303
168 174 174 171 162 162 154 153 156 151 145 155 155 171 185 185 184 191 192 202 222 245 257 290 304 313 324 325 321 321 323 323 319 312 310 313 306 303
179 174 173 164 165 168 163 149 146 145 158 167 187 199 196 195 196 194 200 236 272 296 329 335 327 324 323 321 318 314 314 311 305 303 297 296 295 296
156 158 166 160 160 149 154 151 146 154 156 169 191 194 186 186 186 173 184 253 306 329 311 313 311 312 308 294 293 291 286 277 281 285 286 295 301 296
150 149 146 148 147 149 143 141 149 158 132 122 127 123 122 121 128 142 162 320 320 299 305 316 314 313 310 304 302 299 300 296 292 294 297 300 300 297
156 153 155 158 152 151 153 157 161 163 170 172 180 112 109 153 278 289 284 298 299 301 307 303 304 304 301 307 317 330 339 338 329 322 322 319 319 317
146 150 160 164 166 163 164 159 156 157 163 176 173 206 131 147 286 292 291 288 284 280 285 284 308 316 329 324 340 349 343 337 329 324 325 324 323 319
156 160 165 171 170 168 172 172 169 159 172 157 152 190 221 239 248 257 266 267 261 289 280 314 333 340 339 312 330 336 322 333 333 330 322 315 311 313
157 161 162 165 166 167 178 184 186 198 201 193 202 207 200 208 229 262 264 266 285 307 307 337 340 336 334 324 327 331 332 333 327 324 322 321 318 317
165 170 174 177 180 180 182 191 195 196 202 200 202 211 217 224 218 219 261 295 315 328 328 327 329 328 330 332 339 333 331 331 325 322 324 322 320 319
193 185 186 186 184 180 177 177 181 188 195 205 220 215 193 193 207 243 245 254 274 302 309 322 338 342 344 345 339 334 331 337 329 327 326 329 332 332
192 193 190 189 185 184 183 188 198 209 223 229 213 203 218 221 215 217 204 198 224 188 329 360 353 348 350 349 345 339 339 338 333 335 334 333 337 340
190 188 187 188 188 189 196 204 210 220 225 227 221 219 203 203 214 218 226 197 200 86 34 2 357 357 357 1 354 349 346 343 341 334 333 335 344 346
195 194 194 195 197 200 206 214 221 230 228 218 203 197 205 216 224 189 176 179 133 43 2 358 358 356 1 11 5 352 348 340 340 346 347 344 341 346
209 205 205 206 208 211 217 224 236 226 218 208 203 209 222 210 183 174 167 139 132 58 11 6 360 358 2 0 359 355 339 349 350 349 348 346 342 341
216 214 213 213 217 219 223 227 222 217 215 215 208 215 202 182 183 183 167 162 127 61 20 7 3 6 4 357 347 358 359 351 351 345 342 338 340 343
219 220 221 220 220 222 223 218 222 226 221 211 206 198 183 194 185 175 169 151 98 48 12 4 5 5 355 350 355 1 7 6 0 348 338 334 335 336
226 226 225 225 229 230 227 228 230 222 213 205 201 190 194 185 185 184 179 154 95 26 8 2 359 356 354 0 1 359 359 358 1 3 353 345 336 331
230 231 231 230 234 236 232 231 226 218 206 202 197 198 184 180 196 193 179 163 84 9 1 356 354 356 359 3 3 1 357 356 354 356 6 5 3 355
Wind_Speed_850mb
35 36 51 55 48 50 68 61 64 45 46 59 60 57 63 54 49 36 23 19 18 18 15 18 17 18 15 12 15 17 18 22 24 28 31 32 34 37
38 44 52 48 58 58 60 65 62 68 41 53 58 54 53 57 50 32 17 13 15 12 15 17 17 15 12 15 18 20 24 25 29 32 36 38 40 43
32 37 44 39 44 55 62 61 51 59 58 52 49 46 45 46 50 32 24 14 16 16 16 15 10 12 16 18 21 25 28 31 35 38 45 45 48 51
34 34 42 45 51 57 54 53 40 36 53 51 42 44 40 39 33 27 17 16 14 13 10 8 12 15 18 22 27 31 36 41 45 48 51 52 56 59
30 34 42 49 52 54 51 48 54 47 48 44 39 37 35 35 31 26 22 18 17 14 8 10 12 19 23 29 32 35 38 40 42 42 45 47 50 53
27 37 46 48 50 55 55 52 43 48 42 34 34 28 27 27 22 21 23 16 11 9 7 11 16 22 25 28 32 36 35 35 40 42 42 46 50 53
27 36 50 63 48 54 57 51 50 45 40 36 27 23 25 26 20 13 13 10 10 12 11 15 21 23 31 34 33 35 38 38 44 47 50 55 58 63
40 45 48 53 52 44 57 44 37 36 32 26 25 24 23 19 14 7 6 7 13 10 17 21 30 30 36 31 36 45 47 47 51 57 59 57 66 71
43 55 51 53 53 52 44 33 28 27 17 22 25 26 22 18 13 8 2 5 13 23 31 35 39 42 42 46 46 45 46 45 45 51 60 68 68 71
47 50 60 57 54 42 32 25 23 25 23 13 7 8 5 6 4 8 13 18 21 27 32 36 37 37 37 38 29 30 32 35 37 40 44 48 51 52
47 47 50 45 35 29 27 25 23 22 17 8 12 10 4 3 4 12 15 16 19 25 26 20 27 35 26 21 27 34 37 38 41 43 47 51 55 59
41 41 38 36 36 37 33 29 28 28 23 16 20 18 10 11 16 16 13 10 11 13 14 26 19 24 20 17 36 38 45 51 50 50 50 50 55 67
37 42 37 34 31 29 30 35 26 29 26 18 19 20 19 18 14 13 13 10 11 10 13 16 18 27 27 34 41 39 51 56 60 61 57 55 53 56
28 33 33 34 32 33 35 37 32 29 28 27 27 27 22 15 12 7 4 6 6 6 11 20 15 20 29 34 43 54 57 56 59 58 71 71 72 72
23 27 35 36 36 34 32 31 30 30 29 26 23 20 15 10 6 4 5 6 10 9 8 7 18 23 29 36 44 51 61 63 57 74 73 73 78 76
31 34 33 35 37 34 34 33 30 29 26 25 23 19 15 13 9 10 11 9 9 7 4 14 19 28 34 37 42 50 53 59 70 70 73 70 63 54
35 41 42 44 46 43 40 36 31 29 31 30 26 23 20 17 16 13 13 12 9 3 8 14 21 28 33 37 45 51 60 64 65 65 64 64 55 49
45 50 50 49 49 48 45 40 38 38 39 35 32 28 20 20 20 21 19 10 4 6 11 18 26 33 41 47 52 60 61 61 58 59 58 65 69 57
53 54 53 50 49 49 46 45 43 41 35 34 35 29 23 19 23 21 15 11 7 5 11 21 30 39 48 55 51 53 55 54 62 67 65 63 65 55
62 61 59 54 52 53 52 52 51 49 45 43 40 30 26 29 28 23 15 10 7 7 13 20 29 40 46 45 47 47 40 47 57 64 68 67 60 58
70 70 64 59 57 54 52 54 57 59 56 51 43 36 37 29 24 17 15 10 8 8 13 20 30 37 37 40 49 56 52 45 44 49 56 66 71 71
70 74 73 73 66 60 61 62 62 64 63 56 46 46 37 30 22 24 17 8 5 8 13 20 27 32 37 45 48 53 60 60 55 42 35 40 48 53
67 71 76 77 75 72 69 62 65 70 67 57 53 47 45 35 33 28 17 7 3 6 12 18 25 30 36 41 47 54 60 64 67 68 57 48 42 40
Wind_Direction_850mb
183 183 176 167 178 182 179 184 169 153 154 171 172 185 185 182 172 169 165 173 195 215 217 221 216 218 235 269 284 286 292 296 302 301 301 307 309 307
187 182 187 183 176 179 175 171 172 163 153 174 182 186 166 176 181 182 191 214 213 220 221 222 221 234 261 287 296 304 300 297 299 301 301 304 306 304
179 179 186 190 181 176 171 171 173 169 162 172 174 175 172 175 183 192 218 223 222 218 225 224 234 266 290 297 300 297 302 304 304 304 303 306 307 304
169 169 172 178 173 174 176 170 162 173 165 159 164 169 172 178 186 213 225 215 208 209 223 249 274 287 291 297 304 307 307 305 306 308 310 311 308 305
164 170 168 170 178 177 173 155 143 142 146 147 152 152 162 181 190 199 197 208 209 208 234 248 267 285 297 307 313 315 316 318 318 315 311 311 307 303
168 174 174 171 162 162 154 153 156 151 145 155 155 171 185 185 184 191 192 202 222 245 257 290 304 313 324 325 321 321 323 323 319 312 310 313 306 303
179 174 173 164 165 168 163 149 146 145 158 167 187 199 196 195 196 194 200 236 272 296 329 335 327 324 323 321 318 314 314 311 305 303 297 296 295 296
156 158 166 160 160 149 154 151 146 154 156 169 191 194 186 186 186 173 184 253 306 329 311 313 311 312 308 294 293 291 286 277 281 285 286 295 301 296
150 149 146 148 147 149 143 141 149 158 132 122 127 123 122 121 128 142 162 320 320 299 305 316 314 313 310 304 302 299 300 296 292 294 297 300 300 297
156 153 155 158 152 151 153 157 161 163 170 172 180 112 109 153 278 289 284 298 299 301 307 303 304 304 301 307 317 330 339 338 329 322 322 319 319 317
146 150 160 164 166 163 164 159 156 157 163 176 173 206 131 147 286 292 291 288 284 280 285 284 308 316 329 324 340 349 343 337 329 324 325 324 323 319
156 160 165 171 170 168 172 172 169 159 172 157 152 190 221 239 248 257 266 267 261 289 280 314 333 340 339 312 330 336 322 333 333 330 322 315 311 313
157 161 162 165 166 167 178 184 186 198 201 193 202 207 200 208 229 262 264 266 285 307 307 337 340 336 334 324 327 331 332 333 327 324 322 321 318 317
165 170 174 177 180 180 182 191 195 196 202 200 202 211 217 224 218 219 261 295 315 328 328 327 329 328 330 332 339 333 331 331 325 322 324 322 320 319
193 185 186 186 184 180 177 177 181 188 195 205 220 215 193 193 207 243 245 254 274 302 309 322 338 342 344 345 339 334 331 337 329 327 326 329 332 332
192 193 190 189 185 184 183 188 198 209 223 229 213 203 218 221 215 217 204 198 224 188 329 360 353 348 350 349 345 339 339 338 333 335 334 333 337 340
190 188 187 188 188 189 196 204 210 220 225 227 221 219 203 203 214 218 226 197 200 86 34 2 357 357 357 1 354 349 346 343 341 334 333 335 344 346
195 194 194 195 197 200 206 214 221 230 228 218 203 197 205 216 224 189 176 179 133 43 2 358 358 356 1 11 5 352 348 340 340 346 347 344 341 346
209 205 205 206 208 211 217 224 236 226 218 208 203 209 222 210 183 174 167 139 132 58 11 6 360 358 2 0 359 355 339 349 350 349 348 346 342 341
216 214 213 213 217 219 223 227 222 217 215 215 208 215 202 182 183 183 167 162 127 61 20 7 3 6 4 357 347 358 359 351 351 345 342 338 340 343
219 220 221 220 220 222 223 218 222 226 221 211 206 198 183 194 185 175 169 151 98 48 12 4 5 5 355 350 355 1 7 6 0 348 338 334 335 336
226 226 225 225 229 230 227 228 230 222 213 205 201 190 194 185 185 184 179 154 95 26 8 2 359 356 354 0 1 359 359 358 1 3 353 345 336 331
230 231 231 230 234 236 232 231 226 218 206 202 197 198 184 180 196 193 179 163 84 9 1 356 354 356 359 3 3 1 357 356 354 356 6 5 3 355